Flag for Moldova Weather past 2 weeks in Chisinau, Moldova

Now
41 °F

Partly sunny.


Feels Like: 34 °F
Forecast: 34 / 42 °F
Wind: 12 mph from Northwest

Location: Chisinau International Airport

Current Time: Dec 21, 2014 at 3:50:08 PM

Latest Report: Dec 21, 2014 at 3:00 PM


Visibility: N/A

Pressure: 29.95 "Hg

Humidity: 61%

Dew point: 28 °F

Location of ChisinauLocation

Historic Weather in Chisinau — Graph

°F

Chisinau temperature yesterday

Maximum temperature yesterday: 50 °F (at 12:30 PM)
Minimum temperature yesterday: 34 °F (at 12:00 AM)
Average temperature yesterday: 39 °F

Past Weeks' High & Low Weather Summary

 TemperatureHumidityPressure
High50 °F (Dec 13, 2:00 PM)93% (Dec 6, 7:30 PM)30.30 "Hg (Dec 6, 7:30 PM)
Low25 °F (Dec 7, 12:30 AM)50% (Dec 13, 2:00 PM)29.80 "Hg (Dec 17, 1:30 PM)
Average35 °F84%30.08 "Hg
* Reported Dec 6 2:00 PM — Dec 21 2:30 PM, Chisinau, Weather by CustomWeather, © 2014

Note: Actual official high and low records may vary slightly from our data, if they occured in-between our weather recording intervals... More about our weather records

Advertising

Chisinau weather history for previous 24 hours

 ConditionsComfort  
Time TempWeatherWind HumidityBarometerVisibility
2:30 PM
Dec 21
41 °FLow clouds.15 mph61%29.95 "HgN/A
2:00 PM43 °FOvercast.6 mph66%29.92 "HgN/A
1:30 PM43 °FOvercast.5 mph66%29.92 "HgN/A
1:00 PM43 °FOvercast.7 mph66%29.92 "HgN/A
12:30 PM41 °FLight rain. Overcast.2 mph76%29.95 "HgN/A
12:00 PM41 °FLight rain. Overcast.2 mph76%29.92 "HgN/A
11:30 AM39 °FPartly sunny.3 mph81%29.95 "HgN/A
11:00 AM39 °FPartly sunny.5 mph81%29.95 "HgN/A
10:30 AM37 °FScattered clouds.6 mph81%29.92 "HgN/A
10:00 AM37 °FSunny.5 mph81%29.92 "Hg10 mi
9:30 AM37 °FSunny.5 mph81%29.92 "Hg10 mi
9:00 AM37 °FSunny.5 mph81%29.92 "Hg10 mi
8:30 AM37 °FPassing clouds.6 mph81%29.92 "HgN/A
8:00 AM36 °FPassing clouds.3 mph87%29.92 "HgN/A
7:30 AM37 °FPassing clouds.7 mph81%29.92 "HgN/A
7:00 AM36 °FClear.10 mph87%29.92 "Hg10 mi
6:30 AM36 °FClear.7 mph81%29.92 "Hg10 mi
6:00 AM36 °FClear.8 mph81%29.89 "Hg10 mi
5:30 AM36 °FClear.7 mph81%29.92 "Hg10 mi
5:00 AM36 °FClear.12 mph81%29.92 "Hg10 mi
4:30 AM37 °FClear.12 mph75%29.92 "Hg10 mi
4:00 AM36 °FClear.8 mph81%29.92 "Hg10 mi
3:30 AM36 °FPassing clouds.3 mph81%29.95 "HgN/A
3:00 AM34 °FPassing clouds.7 mph87%29.95 "HgN/A
2:30 AM34 °FClear.2 mph87%29.98 "Hg10 mi
2:00 AM32 °FPassing clouds.6 mph87%29.98 "HgN/A
1:30 AM36 °FPassing clouds.5 mph81%29.98 "HgN/A
1:00 AM34 °FPassing clouds.3 mph81%29.98 "HgN/A
12:30 AM36 °FPassing clouds.7 mph75%30.01 "HgN/A
11:30 PM
Dec 20
34 °FPassing clouds.8 mph81%30.01 "Hg2 mi
11:00 PM36 °FPassing clouds.5 mph75%30.01 "HgN/A
10:30 PM37 °FClear.8 mph75%30.01 "Hg10 mi
10:00 PM37 °FPassing clouds.3 mph75%30.01 "HgN/A
9:30 PM39 °FClear.3 mph70%30.01 "Hg10 mi
9:00 PM39 °FPassing clouds.3 mph70%30.01 "HgN/A
8:30 PM39 °FPassing clouds.6 mph70%30.01 "HgN/A
8:00 PM41 °FPassing clouds.3 mph70%30.01 "HgN/A
7:00 PM45 °FPassing clouds.6 mph61%30.01 "HgN/A
6:30 PM46 °FPassing clouds.8 mph57%30.01 "HgN/A
6:00 PM45 °FOvercast.7 mph71%30.01 "HgN/A
5:30 PM45 °FOvercast.6 mph76%30.01 "HgN/A
5:00 PM46 °FLight rain. Overcast.9 mph71%29.98 "HgN/A
4:30 PM46 °FPassing clouds.15 mph71%29.98 "HgN/A
4:00 PM46 °FPartly sunny.12 mph76%29.95 "HgN/A
3:30 PM46 °FPartly sunny.9 mph76%29.98 "HgN/A
3:00 PM45 °FLight rain. Partly sunny.10 mph71%29.98 "HgN/A
Weather by CustomWeather, © 2014

See weather overviewHow to use our weather pages